Regional Weather Roundup
Issued by NWS

Home | Current Version | Previous Version | Graphics & Text | Print | Product List | Glossary On
Versions: 1 2 3 4 5 6 7 8 9 10 11 12 13 14 15 16 17 18 19 20 21 22 23 24 25 26 27 28
000
ASUS45 KBOU 311207
RWRCO

WEATHER ROUNDUP FOR COLORADO
NATIONAL WEATHER SERVICE DENVER/BOULDER CO
600 AM MDT TUE MAY 31 2016

NOTE: "FAIR" INDICATES FEW OR NO CLOUDS BELOW 12000 FEET WITH NO
SIGNIFICANT WEATHER AND/OR OBSTRUCTIONS TO VISIBILITY.

COZ001>005-013-030-031-311300-
...NORTHWEST COLORADO...

CITY           SKY/WX    TMP DP  RH WIND       PRES   REMARKS
CRAIG          FAIR      36  33  89 CALM      30.14R
HAYDEN         FAIR      39  30  70 SE7       30.15R
MEEKER         FAIR      39  33  79 NW3       30.15R
MOUNT WERNER   NOT AVBL
STEAMBOAT SPGS MOCLDY    39  35  84 CALM      30.16R
WALDEN         NOT AVBL
$$

COZ006>008-011-311300-
...WEST CENTRAL VALLEYS...

CITY           SKY/WX    TMP DP  RH WIND       PRES   REMARKS
GRAND JUNCTION FAIR      48  35  60 SE7       30.04R
MONTROSE       FAIR      44  32  62 S12       30.11R
EAGLE          FAIR      37  32  81 CALM      30.20S
RIFLE          FAIR      40  32  73 E3        30.12R
DELTA          FAIR      48  33  57 NE7       30.08R
NUCLA          FAIR      45  30  57 E8        30.11R
$$

COZ017>023-064>068-311300-
...SOUTHWEST COLORADO...

CITY           SKY/WX    TMP DP  RH WIND       PRES   REMARKS
DURANGO        FAIR      40  27  59 N6        30.07S
CORTEZ         FAIR      39  28  64 NE8       30.06R
PAGOSA SPRINGS FAIR      42  28  57 S5        30.14S
TELLURIDE      FAIR      39  26  58 SE6       30.24S
WOLF CREEK PAS FAIR      36  19  51 NE10      30.39S
$$

COZ009-010-012-014-032>034-037-058>063-311300-
...CENTRAL COLORADO...

CITY           SKY/WX    TMP DP  RH WIND       PRES   REMARKS
ASPEN          FAIR      35  30  82 SW7       30.20R WCI  29
BUENA VISTA    FAIR      37  28  72 NW3       30.21S
COPPER MTN     NOT AVBL
BERTHOUD PASS  FAIR      28  19  69 W9        30.38R WCI  20
COTTONWOOD PAS FAIR      45  23  42 CALM      30.28S
GUNNISON       FAIR      34  28  80 CALM      30.25R
KREMMLING      FAIR      32  30  93 CALM      30.21F
LEADVILLE      FAIR      30  24  78 SE3       30.27S
MONARCH PASS   FAIR      34  21  60 MISG      30.46S
SALIDA         FAIR      38  30  73 SW5       30.29R
SUNLIGHT       FAIR      37  28  70 NE3       30.34S
WILKERSON PASS FAIR      36  27  69 CALM      30.36S
$$

COZ069>075-311300-
...SAN LUIS VALLEY/SANGRE DE CRISTO MOUNTAINS...

CITY           SKY/WX    TMP DP  RH WIND       PRES   REMARKS
ALAMOSA        FAIR      37  33  85 W5        30.15S
LA VETA PASS   FAIR      39  32  75 NE10      30.29R
SAGUACHE       FAIR      39  28  65 NW16      30.19R
$$

COZ035-036-038>040-311300-
...NORTHERN COLORADO FRONT RANGE...

CITY           SKY/WX    TMP DP  RH WIND       PRES   REMARKS
DENVER INTL AP CLOUDY    47  42  83 VRB3      30.18S
DMNS CITY PARK   N/A     49  39  69 NE3G15    30.18F
AURORA         CLOUDY    46  45  98 N3        30.19F
FRONT RANGE AP NOT AVBL
ERIE MUNI ARPT CLOUDY    51  38  61 E8        30.18S
BOULDER MUN AP CLOUDY    52  36  54 CALM      30.18R
CENTENNIAL     CLOUDY    48  39  71 N6        30.19S
BROOMFIELD     CLOUDY    50  37  62 CALM      30.19F
FORT COLLINS   MOCLDY    50  37  62 SE5       30.18S
LONGMONT       CLOUDY    54  41  62 SE5       30.19S
$$

COZ041-046-047-076>085-087-088-311300-
...PIKES PEAK/PALMER DIVIDE AND SOUTHERN FOOTHILLS...

CITY           SKY/WX    TMP DP  RH WIND       PRES   REMARKS
COLO. SPRINGS  MOCLDY    48  41  76 N17       30.18S
A. F. ACADEMY  CLOUDY    45  41  87 N16       30.18S
SCHRIEVER AFB  NOT AVBL
ELLICOTT       NOT AVBL
FALCON         CLOUDY    45  42  90 N10G17    30.21R
FORT CARSON    FAIR      49  44  80 N15       30.14R
LIMON          CLOUDY    50  47  89 N9        30.17R
MONUMENT HILL  FOG       41  41 100 NW8       30.24R VSB 1/2
TRINIDAD       FAIR      46  40  79 W6        30.11R
$$

COZ042>045-048>051-090-091-311300-
...NORTHEAST COLORADO...

CITY           SKY/WX    TMP DP  RH WIND       PRES   REMARKS
GREELEY ARPT   CLOUDY    50  39  66 CALM      30.18R
AKRON          CLOUDY    48  46  93 NW7       30.15R
BURLINGTON     FAIR      51  48  89 N8        30.09R
WRAY           FAIR      52  52 100 N6        30.10R
STERLING       CLOUDY    50  46  87 NW7       30.12R
HOLYOKE        NOT AVBL
FORT MORGAN    CLOUDY    49  41  74 NW3       30.16R
$$

COZ086-089-092>099-311300-
...SOUTHEAST COLORADO...

CITY           SKY/WX    TMP DP  RH WIND       PRES   REMARKS
PUEBLO         FAIR      56  46  69 N24G35    30.08R
LA JUNTA       FAIR      55  47  74 NE6       30.06R
LAMAR          MOCLDY    58  50  75 NE6       30.02R
SPRINGFIELD      N/A     55  53  93 SW5       30.02R
$$




USA.gov is the U.S. government's official web portal to all federal, state and local government web resources and services.